Location: Bílinka
(49.3579°N, 14.3767°E)
Time: 22:30:44
(UTC+00:00)

FENGYUN 1C DEB - Visible Passes

Search period start: 21 February 2024 00:00
Search period end: 02 March 2024 00:00
Orbit: 782 x 844 km, 98.9° (Epoch: 19 February)

Date Brightness Start Highest point End Pass type
(mag) Time Alt. Az. Time Alt. Az. Time Alt. Az.
27 Feb ? 21:31:15 10° N 21:31:15 10° N 21:31:17 10° N visible
28 Feb ? 21:07:54 11° N 21:07:54 11° N 21:08:03 10° N visible
29 Feb ? 20:44:31 11° N 20:44:31 11° N 20:44:39 10° N visible
01 Mar ? 22:02:18 10° NNW 22:02:18 10° NNW 22:02:22 10° NNW visible
